Regional Weather Roundup
Issued by NWS

Home | Current Version | Previous Version | Text Only | Print | Product List | Glossary On
Versions: 1 2 3 4 5 6 7 8 9 10 11 12 13 14 15 16 17 18 19 20 21 22 23 24 25 26 27 28
000
ASUS45 KSLC 200210
RWRUT

UTAH REGIONAL WEATHER ROUNDUP
NATIONAL WEATHER SERVICE SALT LAKE CITY UT
700 PM MST SUN FEB 19 2017

UTZ001>011-023>025-200300-

NORTHERN UTAH

CITY           SKY/WX    TMP DP  RH WIND       PRES   REMARKS
BRIGHAM CITY     N/A     47  35  61 W5        29.82R
HILL AFB       MOCLDY    43  34  70 N6        29.83R
LOGAN          NOT AVBL
OGDEN          LGT RAIN  44  35  70 CALM      29.81R
SALT LAKE CITY MOCLDY    47  40  76 S12       29.79R
TOOELE VALLEY  PTCLDY    43  36  75 SE5       29.81R
WENDOVER       PTCLDY    48  27  43 NW14      29.79R
HEBER CITY     MOCLDY    36  34  93 E3        29.83R
WEST JORDAN    MOCLDY    46  46  99 S8        29.82R

$$

UTZ011>015-024>027-200300-

CENTRAL/NORTHEAST UTAH

CITY           SKY/WX    TMP DP  RH WIND       PRES   REMARKS
PROVO AIRPORT  PTCLDY    43  37  81 E5        29.83R
DELTA          PTCLDY    45  36  70 S18G24    29.82R
PRICE          CLOUDY    36  35  96 NE6       29.85R WCI  31
RICHFIELD      CLEAR     48  30  49 SW10G21   29.86R
ROOSEVELT      CLOUDY    41  37  87 E7        29.84R
VERNAL         CLOUDY    37  35  92 CALM      29.84R

$$

UTZ013>016-019>022-027-200300-

SOUTHERN UTAH

CITY           SKY/WX    TMP DP  RH WIND       PRES   REMARKS
BRYCE CANYON   CLOUDY    36  28  73 NW8       29.92R WCI  30
CEDAR CITY     CLOUDY    40  35  83 SW16      29.92R WCI  31
MILFORD        CLEAR     44  36  73 S16G28    29.88R
ST GEORGE      CLOUDY    52  44  74 SW8       29.94R
HANKSVILLE     PTCLDY    43  37  81 S6        29.87R
KANAB          MOCLDY    45  36  70 W9        29.98R
BLANDING       CLOUDY    40  35  84 SW7       29.96R WCI  35

$$

REGIONAL REPORTS     COLORADO/ARIZONA

CITY           SKY/WX    TMP DP  RH WIND       PRES   REMARKS
CRAIG, CO      LGT SNOW  33  31  92 SW10      29.85R FOG     WCI  25
GRAND JUNCTION LGT RAIN  42  42 100 NW13      29.85R
RIFLE, CO      CLOUDY    41  35  79 W13       29.84R
MONTROSE, CO   CLOUDY    43  28  55 S6        29.86R
CORTEZ, CO     CLOUDY    39  36  89 CALM      29.91R
COLORADO CITY  CLOUDY    45  39  81 W3        29.99R
PAGE, AZ       PTCLDY    49  34  56 W3        29.89R
GRAND CANYON   LGT RAIN  37  36  96 SW9       29.98R WCI  30
KINGMAN, AZ    CLOUDY    50  36  58 SW12      29.98R
FLAGSTAFF, AZ  CLOUDY    34  32  92 W10       29.99R WCI  26

$$

REGIONAL REPORTS    NEVADA/IDAHO/WYOMING

CITY           SKY/WX    TMP DP  RH WIND       PRES   REMARKS
LAS VEGAS, NV  PTCLDY    58  37  45 S7        29.90R
ELY, NY        PTCLDY    38  29  70 S10       29.86R WCI  31
ELKO, NV       PTCLDY    43  27  53 CALM      29.78R
POCATELLO, ID  CLEAR     33  30  88 S10       29.81R WCI  25
BURLEY, ID     CLOUDY    45  31  58 W6        29.78R
FORT BRIDGER,    N/A     33  32  97 SW13      29.85R WCI  23
EVANSTON, WY   CLOUDY    30  25  81 SW9       29.82R WCI  22
ROCK SPRINGS,  LGT SNOW  33  30  88 W13       29.82R FOG     WCI  24
KEMMERER, WY     N/A     28  23  80 W15       29.81R WCI  17

$$




USA.gov is the U.S. government's official web portal to all federal, state and local government web resources and services.